< < Back
Terminal Aerodrome Forecast


Current Version              Previous Versions:   1  2  3  4  5  6  7  8  9  

Terminal Aerodrome Forecast

209
FTUS44 KMOB 261100
TAFPNS
TAF
KPNS 261131Z 2612/2712 32008KT P6SM SKC
     FM262100 25010KT P6SM SKC
     FM270700 31010KT P6SM SKC=

Latest METAR

579
SAUS70 KWBC 261600 RRP
MTRPNS
METAR KPNS 261553Z 32007KT 10SM CLR 12/M03 A3025 RMK AO2 SLP247
T01171028


USA.gov is the U.S. government's official web portal to all federal, state and local government web resources and services.